Regional Weather Roundup
Issued by NWS

Home | Current Version | Previous Version | Graphics & Text | Print | Product List | Glossary On
Versions: 1 2 3 4 5 6 7 8 9 10 11 12 13 14 15 16 17 18 19 20 21 22 23 24 25 26 27
000
ASUS45 KPSR 050110
RWRAZ

ARIZONA HOURLY REGIONAL WEATHER ROUNDUP
NATIONAL WEATHER SERVICE PHOENIX AZ
600 PM MST WED MAY 04 2016

NOTE: FAIR INDICATES FEW OR NO CLOUDS BELOW 12,000 FEET WITH NO
SIGNIFICANT WEATHER AND/OR OBSTRUCTIONS TO VISIBILITY.

AZZ001>003-036-050200-
NORTHWEST ARIZONA

CITY           SKY/WX    TMP DP  RH WIND       PRES   REMARKS
BULLHEAD CITY  PTSUNNY   97  25   7 S13       29.69F
KINGMAN        PTSUNNY   85  18   8 S21G28    29.87F
$$

AZZ004>008-015-016-018-050200-
NORTH CENTRAL ARIZONA

CITY           SKY/WX    TMP DP  RH WIND       PRES   REMARKS
GRAND CANYON   MOSUNNY   71  22  15 S12       30.12F
PRESCOTT       FAIR      78  20  11 S16G22    30.02S
FLAGSTAFF      SUNNY     68  19  15 SW18G24   30.16F
PAYSON         SUNNY     81  23  12 S8G15     30.06F
PAGE           SUNNY     82  23  11 SE9       29.95F
$$

AZZ009>014-017-050200-
NORTHEAST ARIZONA

CITY           SKY/WX    TMP DP  RH WIND       PRES   REMARKS
WINSLOW        SUNNY     82  22  11 S15       30.03S
SAINT JOHNS    MOSUNNY   78  23  13 SE7       30.06F
WINDOW ROCK    FAIR      73  24  16 S5        30.16F
SHOW LOW       FAIR      72  19  14 S15       30.15S
$$

AZZ023-050200-
GREATER PHOENIX AREA

CITY           SKY/WX    TMP DP  RH WIND       PRES   REMARKS
PHOENIX        MOSUNNY   99  22   6 CALM      29.70F
BUCKEYE        SUNNY     95  27   8 SW17      29.74S
GLENDALE       MOSUNNY  100  18   5 SE6       29.72F
LUKE AFB       SUNNY     99  23   6 SW17      29.70F
DEER VALLEY    SUNNY     98  23   7 S10G17    29.73F
SCOTTSDALE     SUNNY     98  15   5 S6        29.75F
MESA-GATEWAY   SUNNY     99  25   7 W14       29.73F
CHANDLER       MOSUNNY   99  19   6 SW9       29.72F
$$

AZZ027-028-050200-
SOUTHWEST MARICOPA COUNTY AND PINAL COUNTY

CITY           SKY/WX    TMP DP  RH WIND       PRES   REMARKS
CASA GRANDE    SUNNY     99  34  10 W8        29.75F
GILA BEND      SUNNY     97  23   7 SW20G25   29.71S
$$

AZZ503-504-507>509-050200-
SOUTHEAST ARIZONA

CITY           SKY/WX    TMP DP  RH WIND       PRES   REMARKS
TUCSON         MOSUNNY   97  18   6 W9        29.83F
DAVIS-MONTHAN  CLOUDY    96  23   7 NW5       29.81F
RYAN FIELD     SUNNY     97  21   6 SW17      29.82S
NOGALES        SUNNY     88  21   8 SW12G22   29.93S
SIERRA VISTA   SUNNY     86  14   7 S16       30.00S
DOUGLAS        SUNNY     87  25  10 E6        29.96F
SAFFORD        SUNNY     90  26  10 SE15G21   29.91F
$$

AZZ020-021-025-026-031-050200-
SOUTHWEST ARIZONA

CITY           SKY/WX    TMP DP  RH WIND       PRES   REMARKS
YUMA           MOSUNNY   94  33  11 S16       29.71S
$$

CAZ031-033-041-043-047-048-061-050200-
SOUTHERN CALIFORNIA

CITY           SKY/WX    TMP DP  RH WIND       PRES   REMARKS
DOWNTOWN L.A.  SUNNY     64  52  64 VRB3      29.89R
L.A. AIRPORT   MOSUNNY   61  52  72 W13       29.91R
SAN DIEGO      PTSUNNY   63  51  65 W10       29.96R
BURBANK        SUNNY     66  51  58 S12       29.87S
ONTARIO        MOSUNNY   69  52  54 W17G25    29.87R
RIVERSIDE      MOSUNNY   67  52  58 W15G24    29.87R
PALM SPRINGS   MOSUNNY   90  41  18 NW23G32   29.70F
EL CENTRO NAS  MOSUNNY   92  36  14 SE18      29.67F
IMPERIAL       MOSUNNY   95  33  11 SE18      29.66F
BLYTHE         SUNNY     97  35  11 S16       29.69F
NEEDLES        PTSUNNY   97  26   8 SW14      29.69F
$$

NVZ020-UTZ003-050200-
SOUTHERN NEVADA-UTAH

CITY           SKY/WX    TMP DP  RH WIND       PRES   REMARKS
LAS VEGAS      PTSUNNY   90  20   7 SE14G21   29.74F
SALT LAKE CITY PTSUNNY   80  29  15 S8        29.94F
$$

NMZ009-TXZ055-050200-
NEW MEXICO-WEST TEXAS

CITY           SKY/WX    TMP DP  RH WIND       PRES   REMARKS
ALBUQUERQUE    PTCLDY    76  20  12 W6        30.15F
EL PASO        CLEAR     83  21  10 E6        30.06F
$$


........................KEY........................
SKY/WX - SKY CONDITION/WEATHER
TMP    - TEMPERATURE IN FAHRENHEIT
DP     - DEW POINT IN FAHRENHEIT
RH     - RELATIVE HUMIDITY IN PERCENT
WIND   - DIRECTION AND SPEED IN MILES PER HOUR (MPH)
VRB    - VARIABLE WIND DIRECTION
PRES   - MEAN SEA LEVEL PRESSURE IN INCHES OF MERCURY
         F - FALLING PRESSURE   R - RISING PRESSURE
         S - STEADY PRESSURE
VSB    - VISIBILITY IN MILES
HX     - HEAT INDEX IN FAHRENHEIT
WCI    - WIND CHILL INDEX IN FAHRENHEIT
TC     - TEMPERATURE IN CELSIUS WHICH IS ALSO KNOWN AS
         TEMPERATURE IN CENTIGRADE
AFB    - AIR FORCE BASE
         LUKE AFB IS LUKE AIR FORCE BASE
         DAVIS-MONTHAN IS DAVIS-MONTHAN AIR FORCE BASE
NAS    - NAVAL AIR STATION
         EL CENTRO NAS IS EL CENTRO NAVAL AIR STATION
N/A    - NOT AVAILABLE





USA.gov is the U.S. government's official web portal to all federal, state and local government web resources and services.